Location: JAPAN
(35.1974°N, 137.0216°E)
Time: 05:31:04
(UTC+09:00)

ISS - Visible Passes

Search period start: 27 July 2017 00:00
Search period end: 06 August 2017 00:00
Orbit: 400 x 408 km, 51.6° (Epoch: 27 July)

Date Brightness Start Highest point End Pass type
(mag) Time Alt. Az. Time Alt. Az. Time Alt. Az.
28 Jul -0.7 19:56:21 10° WNW 19:58:17 15° NNW 20:00:13 10° N visible
04 Aug -0.4 21:55:34 10° NNW 21:55:49 11° N 21:55:49 11° N visible
05 Aug -0.9 21:04:04 10° N 21:05:10 11° NNE 21:05:10 11° NNE visible
